Home > Weather > Toledo > Past weeks

Flag for USA Past Weather in Toledo, Ohio, USA — Yesterday and Last 2 Weeks

Now
75 °F

Sunny.


Feels Like: 77 °F
Forecast: 61 / 81 °F
Wind: 5 mph from East

Location: Toledo Suburban Airport

Current Time: May 31, 2016 at 10:27:45 AM

Latest Report: May 31, 2016 at 9:55 AM


Visibility: 10 mi

Pressure: 30.04 "Hg

Humidity: 54%

Dew Point: 57 °F

Location of ToledoLocation

Past Weather in Toledo — Graph

°F

Toledo Temperature Yesterday

Maximum temperature yesterday: 86 °F (at 5:14 PM)
Minimum temperature yesterday: 59 °F (at 3:55 AM)
Average temperature yesterday: 74 °F

High & Low Weather Summary for the Past Weeks

 TemperatureHumidityPressure
High90 °F (May 28, 3:55 PM)94% (May 24, 5:14 AM)30.25 "Hg (May 24, 5:14 AM)
Low40 °F (May 19, 5:15 AM)24% (May 24, 3:14 PM)29.89 "Hg (May 26, 8:34 PM)
Average66 °F60%30.06 "Hg
* Reported May 16 9:15 AM — May 31 9:15 AM, Toledo, Weather by CustomWeather, © 2016

Note: Actual official high and low records may vary slightly from our data, if they occured in-between our weather recording intervals... More about our weather records

Advertising

Toledo Weather History for the Previous 24 Hours

Scroll right to see more
 ConditionsComfort  
Time TempWeatherWind HumidityBarometerVisibility
9:15 AM
Tue, May 31
73 °FSunny.5 mph57%30.03 "Hg10 mi
8:54 AM72 °FSunny.3 mph58%30.03 "Hg10 mi
8:35 AM71 °FSunny.No wind59%30.03 "Hg10 mi
8:14 AM69 °FSunny.3 mph62%30.03 "Hg10 mi
7:55 AM66 °FSunny.No wind70%30.03 "Hg10 mi
7:34 AM63 °FSunny.No wind83%30.02 "Hg10 mi
7:14 AM60 °FSunny.No wind88%30.02 "Hg10 mi
6:55 AM58 °FClear.No wind87%30.01 "Hg7 mi
6:34 AM56 °FClear.No wind88%30.01 "Hg7 mi
6:14 AM57 °FFog.No wind89%30.00 "Hg4 mi
5:55 AM56 °FClear.No wind87%30.00 "Hg10 mi
5:34 AM57 °FFog.No wind88%30.00 "Hg5 mi
5:14 AM57 °FClear.No wind86%30.00 "Hg10 mi
4:55 AM57 °FClear.No wind88%30.00 "Hg10 mi
4:34 AM57 °FFog.No wind88%30.00 "Hg5 mi
4:14 AM58 °FClear.No wind87%29.99 "Hg10 mi
3:55 AM58 °FClear.No wind85%29.99 "Hg10 mi
3:34 AM58 °FClear.No wind87%29.99 "Hg10 mi
3:14 AM59 °FClear.No wind84%29.98 "Hg10 mi
2:55 AM60 °FClear.No wind82%29.98 "Hg10 mi
2:34 AM60 °FClear.No wind83%29.99 "Hg10 mi
2:14 AM61 °FClear.No wind82%29.98 "Hg10 mi
1:55 AM60 °FClear.No wind84%29.99 "Hg3 mi
1:34 AM61 °FClear.No wind84%29.99 "Hg10 mi
1:14 AM62 °FClear.No wind81%29.99 "Hg10 mi
12:55 AM62 °FClear.No wind81%29.99 "Hg10 mi
12:34 AM63 °FClear.No wind81%29.99 "Hg10 mi
12:14 AM63 °FClear.No wind80%29.99 "Hg10 mi
11:55 PM
Mon, May 30
64 °FClear.No wind78%29.99 "Hg10 mi
11:34 PM65 °FClear.No wind75%29.99 "Hg4 mi
11:14 PM64 °FClear.No wind78%29.99 "Hg7 mi
10:55 PM65 °FClear.No wind72%29.99 "Hg2 mi
10:34 PM67 °FClear.No wind70%29.99 "Hg10 mi
10:14 PM68 °FClear.No wind68%29.98 "Hg7 mi
9:55 PM69 °FSunny.No wind66%29.98 "Hg10 mi
9:34 PM70 °FSunny.No wind62%29.97 "Hg10 mi
9:14 PM72 °FSunny.No wind58%29.97 "Hg10 mi
8:55 PM75 °FSunny.No wind51%29.96 "Hg10 mi
8:14 PM81 °FSunny.No wind34%29.96 "Hg10 mi
7:55 PM83 °FSunny.3 mph33%29.96 "Hg10 mi
7:34 PM83 °FSunny.No wind31%29.96 "Hg10 mi
7:14 PM84 °FSunny.No wind31%29.95 "Hg10 mi
6:55 PM84 °FSunny.7 mph29%29.95 "Hg10 mi
6:34 PM85 °FScattered clouds.6 mph29%29.95 "Hg10 mi
6:14 PM85 °FSunny.3 mph31%29.96 "Hg10 mi
5:55 PM85 °FSunny.5 mph30%29.96 "Hg10 mi
5:34 PM86 °FScattered clouds.6 mph29%29.96 "Hg10 mi
5:14 PM86 °FSunny.5 mph30%29.96 "Hg10 mi
4:55 PM85 °FSunny.5 mph31%29.97 "Hg10 mi
4:34 PM85 °FScattered clouds.5 mph31%29.97 "Hg10 mi
4:14 PM85 °FScattered clouds.6 mph31%29.98 "Hg10 mi
3:55 PM84 °FScattered clouds.No wind33%29.98 "Hg10 mi
3:34 PM85 °FScattered clouds.7 mph33%29.98 "Hg10 mi
3:14 PM85 °FScattered clouds.6 mph32%29.99 "Hg10 mi
2:55 PM84 °FScattered clouds.5 mph33%29.99 "Hg10 mi
2:34 PM85 °FScattered clouds.6 mph32%30.00 "Hg10 mi
2:15 PM84 °FScattered clouds.7 mph35%30.00 "Hg10 mi
1:54 PM83 °FScattered clouds.7 mph37%30.01 "Hg10 mi
1:14 PM83 °FBroken clouds.6 mph41%30.02 "Hg10 mi
12:55 PM82 °FScattered clouds.3 mph42%30.02 "Hg10 mi
12:34 PM83 °FSunny.8 mph42%30.02 "Hg10 mi
12:15 PM83 °FSunny.9 mph43%30.02 "Hg10 mi
11:55 AM81 °FSunny.7 mph45%30.02 "Hg10 mi
11:34 AM80 °FSunny.3 mph47%30.02 "Hg10 mi
11:15 AM81 °FSunny.6 mph47%30.02 "Hg10 mi
10:55 AM80 °FSunny.6 mph50%30.02 "Hg10 mi
10:34 AM78 °FSunny.No wind53%30.02 "Hg10 mi
10:15 AM78 °FSunny.3 mph54%30.02 "Hg10 mi
Weather by CustomWeather, © 2016

See weather overviewHow to use our weather pages